TimePDT,TemperatureF,Dew PointF,Humidity,Sea Level PressureIn,VisibilityMPH,Wind Direction,Wind SpeedMPH,Gust SpeedMPH,PrecipitationIn,Events,Conditions,WindDirDegrees,DateUTC
12:15 AM,57.2,53.6,88,29.96,10.0,Calm,Calm,-,N/A,,Clear,0,2013-08-14 07:15:00
12:35 AM,57.2,51.8,82,29.96,10.0,Calm,Calm,-,N/A,,Clear,0,2013-08-14 07:35:00
12:55 AM,57.2,53.6,88,29.96,10.0,Calm,Calm,-,N/A,,Clear,0,2013-08-14 07:55:00
1:15 AM,55.4,53.6,94,29.96,10.0,Calm,Calm,-,N/A,,Clear,0,2013-08-14 08:15:00
1:35 AM,55.4,51.8,88,29.96,10.0,Calm,Calm,-,N/A,,Clear,0,2013-08-14 08:35:00
1:55 AM,55.4,53.6,94,29.95,10.0,Calm,Calm,-,N/A,,Clear,0,2013-08-14 08:55:00
2:15 AM,53.6,51.8,94,29.96,10.0,Calm,Calm,-,N/A,,Clear,0,2013-08-14 09:15:00
2:35 AM,53.6,51.8,94,29.95,10.0,Calm,Calm,-,N/A,,Clear,0,2013-08-14 09:35:00
2:55 AM,53.6,50.0,88,29.95,10.0,Calm,Calm,-,N/A,,Clear,0,2013-08-14 09:55:00
3:15 AM,53.6,50.0,88,29.96,10.0,Calm,Calm,-,N/A,,Clear,0,2013-08-14 10:15:00
3:35 AM,53.6,50.0,88,29.95,10.0,Calm,Calm,-,N/A,,Clear,0,2013-08-14 10:35:00
3:55 AM,53.6,51.8,94,29.95,10.0,Calm,Calm,-,N/A,,Clear,0,2013-08-14 10:55:00
4:15 AM,51.8,51.8,100,29.96,10.0,Calm,Calm,-,N/A,,Clear,0,2013-08-14 11:15:00
4:35 AM,50.0,50.0,100,29.96,10.0,Calm,Calm,-,N/A,,Clear,0,2013-08-14 11:35:00
4:55 AM,51.8,50.0,94,29.95,10.0,Calm,Calm,-,N/A,,Clear,0,2013-08-14 11:55:00
5:15 AM,48.2,48.2,100,29.96,10.0,Calm,Calm,-,N/A,,Clear,0,2013-08-14 12:15:00
5:35 AM,50.0,50.0,100,29.96,10.0,Calm,Calm,-,N/A,,Clear,0,2013-08-14 12:35:00
5:55 AM,50.0,50.0,100,29.96,10.0,Calm,Calm,-,N/A,,Clear,0,2013-08-14 12:55:00
6:15 AM,44.6,44.6,100,29.96,1.8,Calm,Calm,-,N/A,,Clear,0,2013-08-14 13:15:00
6:35 AM,48.2,48.2,100,29.97,5.0,North,3.5,-,N/A,,Clear,10,2013-08-14 13:35:00
6:55 AM,48.2,48.2,100,29.97,6.0,Calm,Calm,-,N/A,,Clear,0,2013-08-14 13:55:00
7:15 AM,50.0,50.0,100,29.98,10.0,Calm,Calm,-,N/A,,Clear,0,2013-08-14 14:15:00
7:35 AM,51.8,51.8,100,29.98,9.0,Calm,Calm,-,N/A,,Clear,0,2013-08-14 14:35:00
7:55 AM,53.6,53.6,100,29.98,10.0,North,3.5,-,N/A,,Clear,10,2013-08-14 14:55:00
8:15 AM,57.2,53.6,88,29.98,10.0,Calm,Calm,-,N/A,,Clear,0,2013-08-14 15:15:00
8:35 AM,57.2,53.6,88,29.98,10.0,Calm,Calm,-,N/A,,Clear,0,2013-08-14 15:35:00
8:55 AM,59.0,53.6,82,29.98,10.0,Calm,Calm,-,N/A,,Clear,0,2013-08-14 15:55:00
9:15 AM,62.6,53.6,72,29.98,10.0,Calm,Calm,-,N/A,,Clear,0,2013-08-14 16:15:00
9:35 AM,64.4,53.6,68,29.98,10.0,Calm,Calm,-,N/A,,Clear,0,2013-08-14 16:35:00
9:55 AM,66.2,53.6,64,29.98,-9999.0,Calm,Calm,-,N/A,,Clear,0,2013-08-14 16:55:00
10:15 AM,68.0,53.6,60,29.98,-9999.0,Calm,Calm,-,N/A,,Clear,0,2013-08-14 17:15:00
10:35 AM,69.8,53.6,56,29.98,-9999.0,SE,5.8,-,N/A,,Clear,130,2013-08-14 17:35:00
10:55 AM,69.8,55.4,60,29.98,-9999.0,SE,5.8,-,N/A,,Clear,130,2013-08-14 17:55:00
11:15 AM,71.6,55.4,57,29.97,-9999.0,ESE,4.6,-,N/A,,Clear,120,2013-08-14 18:15:00
11:35 AM,73.4,55.4,53,29.97,-9999.0,ESE,4.6,-,N/A,,Clear,120,2013-08-14 18:35:00
11:55 AM,75.2,55.4,50,29.97,-9999.0,ESE,6.9,-,N/A,,Clear,120,2013-08-14 18:55:00
12:55 PM,77.0,55.4,47,29.95,-9999.0,SSE,4.6,-,N/A,,Clear,150,2013-08-14 19:55:00
1:15 PM,80.6,55.4,42,29.94,-9999.0,ESE,3.5,-,N/A,,Clear,120,2013-08-14 20:15:00
1:35 PM,82.4,53.6,37,29.94,-9999.0,South,4.6,-,N/A,,Clear,180,2013-08-14 20:35:00
1:55 PM,86.0,50.0,29,29.93,-9999.0,WSW,8.1,-,N/A,,Clear,250,2013-08-14 20:55:00
2:15 PM,84.2,50.0,30,29.93,-9999.0,SW,10.4,20.7,N/A,,Clear,230,2013-08-14 21:15:00
2:35 PM,84.2,51.8,33,29.92,-9999.0,SW,18.4,-,N/A,,Clear,220,2013-08-14 21:35:00
2:55 PM,84.2,51.8,33,29.92,-9999.0,WSW,18.4,24.2,N/A,,Clear,240,2013-08-14 21:55:00
3:15 PM,84.2,51.8,33,29.92,-9999.0,SW,16.1,21.9,N/A,,Clear,220,2013-08-14 22:15:00
3:35 PM,84.2,51.8,33,29.92,-9999.0,SW,19.6,23.0,N/A,,Clear,230,2013-08-14 22:35:00
3:55 PM,82.4,50.0,32,29.92,-9999.0,SW,15.0,21.9,N/A,,Clear,230,2013-08-14 22:55:00
4:15 PM,82.4,50.0,32,29.91,-9999.0,WSW,17.3,21.9,N/A,,Clear,240,2013-08-14 23:15:00
4:35 PM,82.4,53.6,37,29.90,-9999.0,SW,11.5,-,N/A,,Clear,230,2013-08-14 23:35:00
4:55 PM,82.4,53.6,37,29.90,-9999.0,SW,12.7,23.0,N/A,,Clear,220,2013-08-14 23:55:00
5:15 PM,80.6,55.4,42,29.90,-9999.0,NE,8.1,-,N/A,,Clear,50,2013-08-15 00:15:00
5:35 PM,80.6,53.6,39,29.90,-9999.0,South,9.2,-,N/A,,Clear,180,2013-08-15 00:35:00
5:55 PM,78.8,55.4,44,29.89,-9999.0,SW,12.7,20.7,N/A,,Clear,220,2013-08-15 00:55:00
6:15 PM,78.8,55.4,44,29.89,-9999.0,SSW,10.4,-,N/A,,Clear,210,2013-08-15 01:15:00
6:35 PM,78.8,55.4,44,29.89,-9999.0,SSE,6.9,-,N/A,,Clear,150,2013-08-15 01:35:00
6:55 PM,77.0,57.2,50,29.88,-9999.0,South,10.4,-,N/A,,Clear,180,2013-08-15 01:55:00
7:15 PM,77.0,57.2,50,29.88,-9999.0,South,10.4,17.3,N/A,,Clear,180,2013-08-15 02:15:00
7:35 PM,73.4,59.0,61,29.88,-9999.0,ESE,4.6,21.9,N/A,,Clear,110,2013-08-15 02:35:00
7:55 PM,71.6,59.0,64,29.88,-9999.0,East,10.4,-,N/A,,Clear,100,2013-08-15 02:55:00
8:15 PM,71.6,57.2,60,29.89,-9999.0,East,8.1,-,N/A,,Clear,80,2013-08-15 03:15:00
8:35 PM,69.8,59.0,68,29.89,-9999.0,East,5.8,-,N/A,,Clear,100,2013-08-15 03:35:00
8:55 PM,68.0,59.0,73,29.90,-9999.0,East,5.8,-,N/A,,Clear,80,2013-08-15 03:55:00
9:15 PM,66.2,59.0,78,29.90,-9999.0,East,5.8,-,N/A,,Unknown,80,2013-08-15 04:15:00
9:35 PM,66.2,59.0,78,29.91,10.0,ESE,5.8,-,N/A,,Unknown,110,2013-08-15 04:35:00
9:55 PM,66.2,59.0,78,29.92,10.0,East,8.1,-,N/A,,Unknown,90,2013-08-15 04:55:00
10:15 PM,64.4,59.0,83,29.92,10.0,East,5.8,-,N/A,,Unknown,90,2013-08-15 05:15:00
10:35 PM,64.4,59.0,83,29.92,10.0,East,4.6,-,N/A,,Unknown,100,2013-08-15 05:35:00
10:55 PM,62.6,59.0,88,29.92,10.0,NE,4.6,-,N/A,,Unknown,50,2013-08-15 05:55:00
11:15 PM,60.8,59.0,94,29.93,10.0,Calm,Calm,-,N/A,,Unknown,0,2013-08-15 06:15:00
11:35 PM,60.8,59.0,94,29.93,10.0,Calm,Calm,-,N/A,,Unknown,0,2013-08-15 06:35:00
11:55 PM,60.8,59.0,94,29.93,10.0,Calm,Calm,-,N/A,,Unknown,0,2013-08-15 06:55:00